Tracking 18984 objects as of 24-Feb-2018
HD Live streaming from Space Station
objects crossing your sky now

FENGYUN 1C DEB

Track FENGYUN 1C DEB now!
10-day predictions


NORAD ID: 31188
Int'l Code: 1999-025BJS
Perigee: 813.3 km
Apogee: 915.7 km
Inclination: 99.0 °
Period: 102.1 minutes
Semi major axis: 7235 km
RCS: 0.0141 m2 (small)
Launch date: May 10, 1999
Source: People's Republic of China (PRC)
Launch site: Taiyaun Space Center, China (TSC)

Note: This is SATELLITE DEBRIS
aabbcc
Your satellite tracking list
Your tracking list is empty




NASA's NSSDC Master Catalog

Two Line Element Set (TLE):
1 31188U 99025BJS 18054.13945321 +.00000561 +00000-0 +33147-3 0  9995
2 31188 098.9614 110.4666 0070730 069.2642 315.9827 14.10580930560759
Source of the keplerian elements: AFSPC